{"data":{"norad_id":56035,"intl_designator":"2023-042BB","name":"STARLINK-5792","alt_names":[],"object_type":"PAYLOAD","status":"ACTIVE","operator":null,"country":"US","launch_date":"2023-03-24","launch_site_code":"AFETR","launch_vehicle":null,"mission":null,"orbit_class":"UNKNOWN","rcs_meters":null,"size_class":null,"mass_kg":null,"dimensions":null,"purposes":["comms"],"wikipedia_slug":null,"has_3d_model":false,"image_url":null,"decayed_at":null,"tle_current":{"epoch":"2026-09-20T09:34:44.636736Z","epoch_age_seconds":114828,"freshness":"FRESH","line1":"1 56035U 23042BB  26263.39912774 -.00000425  00000+0 -59049-5 0  9995","line2":"2 56035  43.0053  25.6156 0001492 285.3328  74.7359 15.27574389192815","mean_motion":15.27574389,"eccentricity":0.0001492,"inclination_deg":43.0053,"raan_deg":25.6156,"arg_perigee_deg":285.3328,"mean_anomaly_deg":74.7359,"bstar":-5.9049e-6,"rev_number":19281,"period_min":94.267094968951,"perigee_km":482.04220597133,"apogee_km":484.08958891593,"semimajor_km":6861.2028974436,"source":"CELESTRAK","updated_at":"2026-09-21T09:00:33.359729Z"}}}